Theta_e
308 308 307 307 307 307 307 308 309 309 310 311 311 311 310 308 305 305 306 308 311 310 313 321 325 325 322 324 328 326 332 331 329 328 328 326 328 327 327 329 328 327 328 327 326
308 308 308 308 308 307 306 306 306 308 309 309 311 310 310 309 309 309 308 307 309 309 321 322 322 325 327 328 328 331 333 331 328 327 327 326 327 328 328 329 329 329 328 325 325
307 307 307 308 308 308 307 307 307 306 308 308 308 309 310 309 306 305 315 311 308 307 315 318 319 323 325 327 329 329 332 330 329 328 326 327 328 327 328 329 328 329 329 329 329
306 307 306 306 306 307 306 307 307 308 306 307 307 308 308 309 310 313 311 307 308 315 314 315 319 324 323 327 328 328 329 329 329 328 328 328 328 328 329 330 329 329 329 329 329
305 306 306 306 307 307 306 307 307 307 306 306 306 308 309 311 308 312 317 311 309 321 314 314 320 320 321 323 325 329 328 328 329 329 329 329 329 329 329 328 327 328 329 329 330
305 305 305 306 306 307 306 306 306 306 306 308 306 307 308 308 307 308 308 307 306 317 315 313 318 320 320 321 324 323 326 326 327 328 328 328 327 327 327 328 328 328 328 328 328
304 304 305 305 305 306 306 306 305 305 306 308 307 306 307 307 305 307 307 307 306 308 310 314 314 317 319 320 321 323 326 326 326 326 327 323 322 323 325 325 325 326 327 327 327
304 304 304 305 305 305 305 304 304 305 308 308 308 306 307 306 307 308 308 309 309 307 308 310 313 314 315 316 316 318 319 319 319 319 320 319 322 322 323 324 325 326 326 325 326
304 304 304 305 305 305 304 304 302 306 307 307 306 306 307 305 307 308 309 309 310 310 308 308 313 316 315 316 319 318 319 319 319 319 320 322 322 321 322 323 324 324 325 325 326
305 304 304 304 305 305 304 303 305 306 306 306 306 306 305 307 309 308 309 310 310 309 309 308 313 315 315 316 319 319 318 318 319 319 318 319 321 321 321 322 324 324 325 326 326
304 304 304 304 304 304 303 303 306 308 306 307 306 306 306 306 306 306 309 310 310 308 310 309 312 316 315 315 316 318 320 321 321 318 317 318 319 321 322 322 323 324 325 327 328
304 304 304 304 303 303 302 304 305 303 306 305 306 306 306 306 307 307 307 309 310 309 310 310 312 314 315 314 313 315 318 319 318 317 318 319 320 322 322 323 322 324 326 326 327
303 304 304 303 303 304 303 303 303 304 306 306 307 307 307 307 308 308 309 308 308 309 309 312 313 311 313 315 314 315 315 316 317 317 318 320 321 320 320 323 323 323 324 326 326
303 304 303 303 303 302 303 303 304 304 308 306 307 308 308 308 309 308 307 308 308 309 309 310 312 311 312 314 315 316 316 315 315 317 319 320 323 322 322 322 322 324 326 327 326
303 303 303 303 303 302 303 303 304 305 304 304 310 308 308 309 310 311 308 308 310 309 310 310 310 311 312 313 315 316 316 317 317 319 320 320 323 321 323 322 322 322 326 327 324
303 304 304 303 301 302 303 303 305 308 304 306 307 306 306 309 309 310 310 308 310 311 309 311 311 311 313 314 316 317 318 319 320 321 323 321 322 321 322 322 322 325 326 325 326
301 301 303 303 303 303 303 304 307 306 304 307 307 305 305 308 308 308 310 310 309 313 314 311 310 310 311 313 316 319 320 321 321 321 323 321 322 322 323 321 322 324 327 326 328
301 301 302 302 302 302 303 306 305 303 306 306 305 304 304 307 306 307 310 314 308 312 315 314 312 311 312 313 316 320 320 319 322 324 322 321 321 321 323 322 323 325 326 326 328
301 301 302 303 303 303 305 305 302 304 305 305 304 304 305 305 305 305 309 317 314 311 313 316 315 312 312 314 319 320 321 319 321 323 324 325 324 325 325 325 326 325 325 328 329
301 301 303 304 303 304 305 304 304 304 304 304 304 303 305 305 304 306 307 311 312 311 312 315 317 314 312 313 314 318 319 319 319 320 321 323 325 326 326 327 327 328 328 328 329
300 303 304 304 303 305 306 305 304 304 304 305 305 306 305 304 307 309 308 309 309 311 311 314 315 316 312 314 314 315 319 318 319 318 319 319 320 327 329 328 329 330 328 329 329
300 304 301 304 305 303 305 304 304 305 305 305 305 307 307 306 308 309 308 308 309 308 311 312 317 317 315 313 315 315 317 318 317 319 319 320 320 324 327 327 327 328 327 328 329
300 300 300 303 304 304 303 303 304 305 305 305 305 304 304 305 308 308 308 307 307 310 312 314 318 318 317 316 315 316 316 317 319 320 319 318 320 323 327 325 324 328 327 327 328
302 303 303 304 302 303 303 303 304 304 305 305 305 305 306 306 306 307 309 308 309 309 311 311 312 317 317 317 317 315 315 316 317 318 318 319 318 321 323 328 326 327 328 328 329
301 302 302 303 303 303 301 301 303 304 305 305 307 307 307 308 308 310 309 311 310 310 310 311 314 312 313 313 315 316 315 315 316 317 318 319 319 319 321 324 326 327 328 329 329
302 303 302 302 302 303 302 302 303 304 304 304 307 305 305 306 307 307 308 310 312 310 311 311 314 312 314 314 316 317 317 315 315 315 316 316 319 320 320 322 326 328 328 329 330
301 300 302 302 303 303 304 303 304 305 304 304 305 306 306 305 305 306 305 306 307 308 310 313 313 313 316 315 316 318 318 318 316 316 316 316 318 318 320 324 327 329 329 329 330
Wind_Speed
16 16 16 15 15 15 15 16 16 16 17 17 18 19 20 22 25 17 14 14 7 5 10 11 10 9 10 7 6 3 6 13 14 11 9 2 4 2 5 10 6 4 13 10 11
15 16 17 16 17 17 15 15 15 16 15 14 15 18 20 19 18 13 33 30 27 21 16 16 10 14 7 8 7 7 11 19 15 14 13 6 7 7 7 14 22 17 16 13 11
15 15 15 16 17 17 19 17 15 15 15 15 14 15 15 13 6 6 4 6 19 29 22 16 15 14 9 6 10 9 20 25 21 19 9 16 17 13 14 22 23 17 21 21 17
18 17 17 17 17 19 21 20 19 17 16 14 14 13 14 3 9 9 9 11 19 20 24 19 13 11 10 17 17 15 23 23 26 20 14 21 18 18 18 30 25 23 19 19 22
21 20 20 20 19 19 20 20 20 20 19 17 13 12 7 5 9 11 13 15 10 10 19 18 19 19 16 15 19 22 20 19 20 21 20 20 22 19 24 30 22 22 21 19 20
21 21 22 23 23 22 22 22 21 21 22 17 13 10 6 14 10 18 21 23 6 7 12 18 9 14 13 13 21 15 22 24 18 17 22 22 26 17 24 28 20 20 22 21 20
22 23 23 24 23 23 24 25 26 25 21 18 15 10 13 23 14 13 11 13 5 7 11 18 23 6 4 9 17 15 16 12 13 15 14 11 24 18 29 21 20 23 21 20 20
23 24 24 24 24 25 26 28 30 27 23 18 14 10 9 13 14 23 20 21 22 23 8 12 17 17 7 4 1 10 11 18 13 18 12 14 25 17 20 13 16 19 17 16 19
25 25 26 25 24 25 27 30 32 15 9 5 5 7 10 7 9 14 18 18 9 19 16 7 14 12 8 15 10 10 14 14 11 9 5 16 21 16 12 8 16 19 19 19 19
25 26 26 26 26 26 28 32 7 3 6 6 3 4 7 2 4 13 11 17 10 11 9 11 10 12 15 16 24 15 14 14 14 10 17 20 24 18 19 12 18 19 19 19 19
24 27 26 24 24 24 29 8 2 2 2 7 9 9 21 17 16 8 4 4 12 16 15 20 13 27 31 26 18 18 20 26 19 14 14 19 18 12 17 18 20 20 20 20 19
26 26 25 24 24 24 6 3 4 3 11 16 24 23 32 17 10 13 8 8 10 19 21 11 29 30 21 22 23 24 23 21 16 12 12 15 21 15 16 22 22 20 20 20 18
27 25 23 24 25 4 9 5 2 9 5 16 10 9 8 10 11 21 11 8 11 20 29 26 38 18 20 23 25 27 28 23 19 12 13 13 23 18 22 13 16 18 19 19 16
27 24 24 25 7 10 7 2 12 4 4 6 2 4 4 5 7 16 17 14 11 21 23 22 25 24 22 30 23 26 24 22 20 13 16 3 16 15 21 22 21 19 16 17 11
26 25 23 17 14 5 4 11 14 4 5 3 2 3 4 4 11 8 19 19 23 12 16 18 18 23 26 26 26 18 14 17 19 18 18 17 11 13 10 20 23 21 17 10 4
28 26 22 12 7 11 11 14 2 3 7 3 2 10 12 6 11 14 6 19 17 18 21 18 12 26 29 20 22 11 13 14 8 10 13 15 11 12 16 19 14 13 9 2 1
32 30 13 5 3 3 6 3 3 5 6 3 6 11 14 9 12 17 15 8 15 19 18 16 17 6 15 19 20 20 14 7 7 7 10 15 13 19 17 18 19 18 6 1 5
31 18 6 1 5 3 4 2 6 3 6 10 12 15 11 10 5 14 17 8 22 14 10 14 11 21 18 21 17 27 21 9 9 6 7 6 10 8 18 19 22 15 10 4 8
30 9 4 11 3 7 1 2 3 3 5 10 15 9 3 8 9 6 8 7 10 10 7 12 17 14 20 19 22 25 20 14 2 2 4 5 7 10 16 12 8 10 5 8 10
9 5 7 8 4 2 1 4 4 7 11 7 6 6 9 9 9 4 6 6 9 13 8 7 10 12 23 23 24 17 20 10 9 10 8 5 5 8 3 15 10 9 9 10 11
6 2 3 7 6 2 1 3 6 9 8 4 5 8 9 11 5 1 4 9 7 14 13 6 6 13 23 21 23 11 21 7 9 5 6 3 5 8 11 5 4 3 10 13 14
4 1 7 7 2 1 3 7 8 8 6 6 7 8 8 9 7 3 5 4 3 7 9 4 5 6 24 10 19 20 22 20 10 9 8 2 4 2 8 5 6 2 10 10 13
4 3 3 2 3 4 6 7 6 7 8 5 5 5 9 8 5 6 3 3 3 4 5 8 4 7 10 6 17 26 21 17 6 5 15 9 3 4 3 3 1 6 12 12 13
2 4 3 2 1 4 8 6 7 8 9 6 11 8 8 7 6 6 6 0 4 1 6 8 3 7 8 7 1 24 23 21 14 9 10 17 12 17 8 1 6 6 8 12 14
3 2 1 4 4 9 7 6 9 7 3 4 3 2 9 5 11 1 4 5 3 1 4 4 2 5 13 11 9 5 23 23 21 16 12 9 23 20 16 5 2 6 12 12 15
2 3 1 5 8 9 4 4 9 8 5 8 5 12 13 10 11 15 7 3 1 2 1 2 2 9 9 10 8 8 7 11 26 23 18 13 14 12 13 7 4 8 14 16 16
1 4 2 6 4 5 3 4 8 13 8 10 13 15 14 12 9 10 14 14 14 12 3 1 4 3 7 3 5 11 14 9 9 21 20 21 27 11 14 13 8 9 16 18 18
Wind_Direction
358 355 350 343 339 336 335 333 330 326 322 324 325 326 325 324 313 310 260 240 251 255 231 162 192 187 158 160 137 139 231 240 236 228 252 212 249 59 327 300 266 267 285 300 301
352 349 346 342 343 342 333 332 331 328 323 319 317 317 324 334 321 283 274 275 265 256 201 179 194 180 180 178 170 195 228 235 236 246 261 280 290 297 285 292 277 282 272 275 281
352 349 343 338 334 333 333 335 327 324 324 320 310 314 324 334 271 237 342 296 255 248 210 212 205 196 205 171 186 207 231 236 256 252 265 283 280 289 288 287 279 290 296 304 290
350 347 342 337 333 331 329 328 324 324 320 315 316 314 326 320 249 158 102 33 357 214 215 218 200 201 208 204 212 234 231 238 248 260 264 265 290 276 282 270 281 289 285 283 286
346 344 341 338 334 329 324 320 318 318 316 316 314 317 333 235 241 199 242 294 352 157 204 204 200 210 210 210 219 232 245 231 245 265 263 272 267 270 286 280 287 278 278 270 276
342 342 339 336 333 328 324 322 315 312 309 304 303 304 260 250 244 253 263 276 266 178 187 209 216 230 252 226 210 226 239 246 241 254 262 266 269 267 266 268 285 281 276 278 272
343 341 338 335 331 328 324 321 318 310 303 292 290 279 254 248 260 280 271 259 214 231 231 220 231 255 266 240 238 242 252 236 233 236 248 285 269 244 258 278 272 276 278 277 275
340 339 336 333 331 328 325 321 317 311 295 281 262 250 255 255 280 273 265 270 256 245 248 234 228 238 244 310 247 220 229 242 230 233 248 222 266 267 266 268 275 274 283 280 277
338 337 335 332 330 327 326 320 322 316 298 219 191 220 265 276 264 269 251 247 240 213 221 239 204 215 198 228 246 211 233 221 237 197 209 200 268 262 272 283 283 281 283 280 282
335 335 333 332 330 329 327 325 343 52 73 131 192 235 250 295 263 307 270 232 230 173 179 204 195 209 214 202 219 219 227 238 238 222 230 243 253 275 286 294 279 287 283 278 274
333 335 334 333 330 330 325 343 318 205 337 262 263 258 287 277 275 256 324 164 217 192 188 188 196 220 211 215 235 252 252 246 243 224 245 255 272 276 292 292 285 287 282 277 272
331 332 331 331 331 327 360 19 68 342 298 261 250 250 256 271 301 263 230 206 192 207 189 176 221 219 222 218 224 231 244 243 250 247 253 281 277 288 282 280 280 280 285 277 283
333 332 331 330 328 326 319 285 344 336 261 290 244 256 243 220 238 273 203 201 217 211 195 198 224 202 201 211 214 224 230 237 244 264 263 278 279 275 278 280 280 275 274 274 269
335 331 330 332 333 333 305 146 328 312 289 275 238 254 208 220 235 240 228 209 217 221 207 227 224 195 204 218 206 231 221 242 246 254 260 246 284 274 283 284 277 280 275 268 264
336 330 328 325 297 283 297 313 322 176 297 76 130 213 316 221 330 325 215 218 226 201 196 219 199 200 206 208 203 236 221 229 236 240 264 257 269 281 276 275 275 274 268 271 302
337 330 323 323 272 270 290 315 265 205 245 312 43 344 331 33 349 336 279 231 227 242 229 224 204 195 208 198 199 184 216 210 222 237 247 252 243 277 265 257 275 267 251 345 359
339 335 326 269 271 293 303 316 194 232 330 10 344 329 317 354 2 342 319 220 219 200 227 220 225 209 194 194 191 189 179 176 210 218 255 249 235 244 262 249 255 262 288 29 136
338 339 5 312 283 255 285 168 228 260 278 347 338 321 308 6 44 336 328 308 214 243 242 209 193 205 190 194 187 188 185 189 194 197 225 165 212 248 242 255 245 250 280 195 154
340 9 16 332 319 182 210 224 279 298 356 330 323 305 298 1 345 357 341 298 28 245 268 212 224 189 184 180 166 191 203 192 213 37 254 167 253 283 248 256 237 237 210 179 158
346 344 3 15 138 220 203 274 286 325 323 314 286 273 300 333 328 12 322 31 352 357 323 279 232 204 183 185 202 188 174 190 212 213 233 193 261 249 240 226 213 202 194 163 160
18 22 359 6 2 348 292 280 295 291 315 298 300 296 289 293 288 84 254 320 22 332 320 282 270 174 171 201 186 178 187 188 192 220 209 243 239 209 238 218 196 183 165 167 154
8 3 349 11 52 339 313 320 314 297 333 289 279 284 268 307 287 209 238 206 11 337 327 320 302 230 198 189 193 197 188 183 188 192 211 247 250 21 256 271 251 190 136 147 158
349 295 351 354 26 339 326 314 278 299 325 310 292 302 302 299 305 305 274 70 159 11 343 343 237 224 148 163 201 200 194 190 178 156 199 202 234 175 260 264 144 160 140 155 165
347 349 342 23 67 316 334 320 317 301 306 334 285 299 313 294 283 276 296 1 199 310 355 331 255 282 204 171 128 199 195 196 194 198 191 216 218 263 278 354 91 108 148 164 171
8 30 58 306 327 329 319 303 300 322 308 317 316 313 348 304 317 90 9 318 176 22 19 20 270 313 284 276 280 171 198 200 202 207 213 204 224 237 267 295 50 181 158 175 173
355 335 276 284 298 308 304 290 293 308 306 306 276 325 324 293 293 297 285 283 28 240 280 360 343 337 255 236 248 250 200 214 212 223 233 247 251 237 274 289 229 181 172 187 184
325 275 252 281 289 291 283 277 284 305 281 259 304 312 300 292 289 281 285 271 265 274 274 243 344 335 222 338 286 250 223 201 202 227 226 228 240 256 280 273 250 192 186 197 183